This is the latest recevied weather packets stored in our database for station/object N6GPM. If no packets are shown the sender has not sent any weather packets the latest 10 day(s).
| Time | Temp. | Humidity | Pressure | Rain* | Wind** | Luminosity | Snow |
|---|---|---|---|---|---|---|---|
| 1777914015 | 15° C | 64% | 1018.8 hPa | 0 mm | - | 451 W/m² | - |
| 1777913710 | 14.44° C | 65% | 1018.5 hPa | 0 mm | - | 414 W/m² | - |
| 1777913407 | 13.89° C | 66% | 1018.8 hPa | 0 mm | - | 817 W/m² | - |
| 1777913104 | 13.89° C | 66% | 1018.7 hPa | 0 mm | - | 289 W/m² | - |
| 1777912800 | 13.89° C | 65% | 1018.8 hPa | 0 mm | - | 588 W/m² | - |
| 1777912495 | 13.89° C | 66% | 1018.8 hPa | 0 mm | - | 234 W/m² | - |
| 1777912192 | 13.89° C | 66% | 1018.6 hPa | 0 mm | - | 304 W/m² | - |
| 1777911889 | 13.89° C | 67% | 1018.8 hPa | 0 mm | - | 440 W/m² | - |
| 1777911585 | 13.89° C | 66% | 1018.5 hPa | 0 mm | - | 546 W/m² | - |
| 1777911281 | 13.33° C | 69% | 1018.6 hPa | 0 mm | - | 585 W/m² | - |
| 1777910978 | 13.33° C | 69% | 1018.6 hPa | 0 mm | - | 415 W/m² | - |
| 1777910677 | 13.33° C | 68% | 1018.5 hPa | 0 mm | - | 370 W/m² | - |
| 1777910372 | 13.33° C | 68% | 1018.6 hPa | 0 mm | - | 207 W/m² | - |
| 1777910069 | 13.89° C | 68% | 1018.6 hPa | 0 mm | - | 275 W/m² | - |
| 1777909767 | 13.33° C | 70% | 1018.5 hPa | 0 mm | - | 382 W/m² | - |
| 1777909464 | 12.78° C | 69% | 1018.6 hPa | 0 mm | - | 246 W/m² | - |
| 1777909161 | 12.78° C | 70% | 1018.7 hPa | 0 mm | - | 207 W/m² | - |
| 1777908859 | 12.78° C | 70% | 1018.4 hPa | 0 mm | - | 172 W/m² | - |
| 1777908556 | 12.78° C | 70% | 1018.4 hPa | 0 mm | - | 163 W/m² | - |
| 1777908253 | 12.78° C | 71% | 1018.5 hPa | 0 mm | - | 191 W/m² | - |
| 1777907950 | 12.22° C | 73% | 1018.4 hPa | 0 mm | - | 278 W/m² | - |
| 1777907644 | 12.22° C | 73% | 1018.2 hPa | 0 mm | - | 185 W/m² | - |
| 1777907340 | 12.22° C | 73% | 1018.2 hPa | 0 mm | - | 171 W/m² | - |
| 1777907037 | 12.22° C | 73% | 1018.3 hPa | 0 mm | - | 186 W/m² | - |
| 1777906735 | 12.22° C | 74% | 1018.5 hPa | 0 mm | - | 118 W/m² | - |
* Rain latest hour (hover to see other rain measurements)
** Current wind speed in m/s (hover to see current wind gust speed)